sat.trackr.live / text

‹ back to catalog

SHIYAN-19 (SY-19)

NORAD 55861 · 2023-034A

PAYLOAD ACTIVE UNKNOWN

§ Identity

Operator
Country
PRC
Launch date
2023-03-15
Launch site
JSC
Launch vehicle
Mass (kg)
RCS (m²)

External: N2YO · Heavens-Above · Gunter

§ Orbital elements

Epoch: 2026-05-25T05:18:46.195200Z

Period
92.56 min
Inclination
97.3962°
Eccentricity
0.0007051
Mean motion
15.55677949 rev/d
Perigee alt
395.4 km
Apogee alt
405.0 km
Semi-major
6,778.3 km
B*
2.7728e-4
RAAN
0.7797°
Arg perigee
79.0154°
Mean anomaly
281.1893°
Rev number
17,899

§ Raw data

SHIYAN-19 (SY-19)1 55861U 23034A   26145.22136800  .00018990  00000+0  27728-3 0  99922 55861  97.3962   0.7797 0007051  79.0154 281.1893 15.55677949178996

JSON: /api/v1/satellites/55861 · /tle

For live sub-satellite position, see the globe view (requires WebGL).

§ Visibility from observer

Set your observer location to see the next 7 days of passes ≥ 10°. The values pass through the URL so the page stays shareable.

No JS? Fill the form by hand. The geolocation button needs JavaScript.